INTELSAT 33E DEB, 62005

Orbit data source: Space-Track

INTELSAT 33E DEB, 62005 is space debris in GEO originally from a launch on Wed, 24 Aug 2016 UTC launched from the French Guiana (FRGUI). Debris objects in space refer to the collection of defunct objects orbiting the Earth. Examples of debris include non-operational satellites, rocket bodies, and fragments generated from explosions, collisions, or faulty payload assembly.

Not visible in the next 10 days
Identifier
62005, 2016-053X
Orbit
GEO
Country
Flag of USUS / ITSO
Related business
Manufacturer
Boeing/ES
Mission
Spacecraft
Bus & Motor
Unknown
Mass
Unknown
Launch date (UTC)
2016-08-24 (10 years ago)
Launch vehicle
Unknown
Launch site
French Guiana (FRGUI)
Object type
Payload
Rocket body
Debris
Shape & HBR
Unknown shape, 1.1 m
Radar Cross Section
RCS unknown

Expand to show TLE details & history
Last TLE update: 12 hours ago

TLE from 12 hours ago
0 INTELSAT 33E DEB
1 62005U 16053X   26166.37067336 -.00000179  00000-0  00000-0 0  9992
2 62005   1.7291  96.3567 0277083 251.5335 104.5659  1.04573967  6291
Epoch: 2026-06-15T08:53Z
TLE epoch observation values (Epoch: 2026-06-15T08:53:46.178Z)
Latitude
Longitude
58.38843°
Altitude
34,935.855 km
Speed
3.094 km/s
True Right ascension
06h 21m 57s
True Declination
0° 00' 00"
Sunlit
Object was in daylight at epoch
Visualization orbit readout
Latitude
Unknown
Longitude
Unknown
Altitude
Unknown
Speed
Unknown
Apparent Right ascension
Unknown
Apparent Declination
Unknown
Sunlit
N/A
Visualization observer readout
Local Sidereal Time
07:01:46
Azimuth
Unknown
Elevation
Unknown
Doppler factor
Unknown
Orbital elements
Apogee altitude
35,759.252 km
Perigee altitude
33,487.099 km
Semi-major axis
41,001.313 km
Eccentricity
0.02771
Inclination
1.7291°
RAAN
96.3567°
Arg. of periapsis
251.5335°
True anomaly
107.61101°
Mean anomaly
104.5659°
Eccentric anomaly
106.09127°
Mean motion
0.26142 °/min
Orbital period
1,377.07 mins
BSTAR
0
Loading maneuver chart data...
Computing Atmospheric mass density...
Loading historical data...
Loading historical data...
Loading historical data...
Loading historical data...
Loading historical data...
Loading historical data...
Loading historical data...

Documentation

Showing up to 5 results
|